TimeFJT,TemperatureF,Dew PointF,Humidity,Sea Level PressureIn,VisibilityMPH,Wind Direction,Wind SpeedMPH,Gust SpeedMPH,PrecipitationIn,Events,Conditions,WindDirDegrees,DateUTC
12:00 AM,80,78,93,29.91,12,Calm,Calm,,,,Partly Cloudy,,2007-01-01 12:00:00
12:00 AM,78.8,78.8,100,29.89,31.1,Calm,Calm,-,N/A,,Partly Cloudy,0,2007-01-01 12:00:00
1:00 AM,78.8,78.8,100,29.89,24.9,Calm,Calm,-,N/A,,Partly Cloudy,0,2007-01-01 13:00:00
2:00 AM,77.0,75.2,94,29.86,24.9,Calm,Calm,-,N/A,,Scattered Clouds,0,2007-01-01 14:00:00
3:00 AM,77,77,100,29.86,31,Calm,Calm,,,,Partly Cloudy,,2007-01-01 15:00:00
3:00 AM,78.8,77.0,94,29.86,31.1,Calm,Calm,-,N/A,,Scattered Clouds,0,2007-01-01 15:00:00
4:00 AM,78.8,77.0,94,29.86,31.1,Calm,Calm,-,N/A,,Scattered Clouds,0,2007-01-01 16:00:00
5:00 AM,77.0,77.0,100,29.86,31.1,Calm,Calm,-,N/A,,Partly Cloudy,0,2007-01-01 17:00:00
6:00 AM,78,78,98,29.89,31,Calm,Calm,,,,Partly Cloudy,,2007-01-01 18:00:00
6:00 AM,78.8,77.0,94,29.89,31.1,Calm,Calm,-,N/A,,Scattered Clouds,0,2007-01-01 18:00:00
7:00 AM,82.4,78.8,89,29.89,31.1,East,5.8,-,N/A,,Scattered Clouds,90,2007-01-01 19:00:00
8:00 AM,82.4,77.0,84,29.89,31.1,East,5.8,-,N/A,,Scattered Clouds,80,2007-01-01 20:00:00
9:00 AM,85,78,73,29.91,31,ENE,8.1,,,,Partly Cloudy,60,2007-01-01 21:00:00
9:00 AM,86.0,77.0,74,29.89,31.1,ENE,8.1,-,N/A,,Mostly Cloudy,60,2007-01-01 21:00:00
10:00 AM,84.2,78.8,84,29.89,31.1,NE,9.2,-,N/A,,Scattered Clouds,40,2007-01-01 22:00:00
11:00 AM,87.8,77.0,70,29.89,31.1,NE,11.5,-,N/A,,Scattered Clouds,50,2007-01-01 23:00:00
12:00 PM,86,78,73,29.89,31,ENE,9.2,,,,Partly Cloudy,70,2007-01-02 00:00:00
12:00 PM,86.0,78.8,79,29.89,31.1,ENE,9.2,-,N/A,,Scattered Clouds,70,2007-01-02 00:00:00
1:00 PM,87.8,77.0,70,29.86,31.1,East,11.5,-,N/A,,Scattered Clouds,80,2007-01-02 01:00:00
2:00 PM,89.6,75.2,62,29.86,31.1,ENE,11.5,-,N/A,,Mostly Cloudy,60,2007-01-02 02:00:00
3:00 PM,89,76,57,29.83,31,NNE,11.5,,,,Partly Cloudy,30,2007-01-02 03:00:00
3:00 PM,89.6,75.2,62,29.83,31.1,NNE,11.5,-,N/A,,Mostly Cloudy,30,2007-01-02 03:00:00
4:00 PM,86.0,75.2,70,29.83,31.1,East,9.2,-,N/A,,Mostly Cloudy,90,2007-01-02 04:00:00
5:00 PM,84.2,78.8,84,29.83,31.1,East,9.2,-,N/A,,Mostly Cloudy,90,2007-01-02 05:00:00
6:00 PM,83,78,82,29.87,31,East,9.2,,,,Partly Cloudy,100,2007-01-02 06:00:00
6:00 PM,84.2,78.8,84,29.86,31.1,East,9.2,-,N/A,,Mostly Cloudy,100,2007-01-02 06:00:00
7:00 PM,82.4,78.8,89,29.86,31.1,East,5.8,-,N/A,,Mostly Cloudy,90,2007-01-02 07:00:00
8:00 PM,82.4,78.8,89,29.89,31.1,Calm,Calm,-,N/A,,Scattered Clouds,0,2007-01-02 08:00:00
9:00 PM,81,78,88,29.91,31,Calm,Calm,,,,Partly Cloudy,,2007-01-02 09:00:00
9:00 PM,80.6,78.8,94,29.89,31.1,Calm,Calm,-,N/A,,Scattered Clouds,0,2007-01-02 09:00:00
10:00 PM,80.6,78.8,94,29.92,31.1,Calm,Calm,-,N/A,,Scattered Clouds,0,2007-01-02 10:00:00
11:00 PM,80.6,78.8,94,29.92,24.9,Calm,Calm,-,N/A,,Scattered Clouds,0,2007-01-02 11:00:00